• In Lithuania
  • List of Countries
  • For 7 days
  • Water Temperature
  • Satellite Maps
  • Weather Map
  • Weather Widgets
  • user-avatar
    Login

    Hourly Weather Dodoma

    Today, 21 October, Sunday

    Time Temperature Precipitation Wind Pressure Humidity
    00:00 +24°C° 0 mm 3 mps 667 mmHg 64%
    01:00 +23°C° 0 mm 2 mps 666 mmHg 68%
    02:00 +21°C° 0 mm 2 mps 666 mmHg 73%
    03:00 +21°C° 0 mm 2 mps 666 mmHg 76%
    04:00 +20°C° 0 mm 2 mps 666 mmHg 79%
    05:00 +20°C° 0 mm 1 mps 666 mmHg 83%
    06:00 +21°C° 0 mm 2 mps 667 mmHg 71%
    07:00 +24°C° 0 mm 2 mps 668 mmHg 60%
    08:00 +27°C° 0 mm 2 mps 669 mmHg 43%
    09:00 +29°C° 0 mm 3 mps 669 mmHg 36%
    10:00 +31°C° 0 mm 3 mps 669 mmHg 29%
    11:00 +34°C° 0 mm 4 mps 669 mmHg 22%
    12:00 +35°C° 0 mm 4 mps 668 mmHg 20%
    13:00 +36°C° 0 mm 5 mps 668 mmHg 19%
    14:00 +35°C° 0 mm 5 mps 667 mmHg 19%
    15:00 +34°C° 0 mm 5 mps 667 mmHg 22%
    16:00 +33°C° 0 mm 5 mps 667 mmHg 24%
    17:00 +32°C° 0 mm 5 mps 667 mmHg 26%
    18:00 +30°C° 0 mm 5 mps 667 mmHg 32%
    19:00 +28°C° 0 mm 5 mps 668 mmHg 37%
    20:00 +26°C° 0 mm 5 mps 668 mmHg 43%
    21:00 +26°C° 0 mm 5 mps 668 mmHg 48%
    22:00 +25°C° 0 mm 4 mps 668 mmHg 53%
    23:00 +23°C° 0 mm 4 mps 668 mmHg 59%

    Tomorrow, 22 October, Monday

    Time Temperature Precipitation Wind Pressure Humidity
    00:00 +22°C° 0 mm 4 mps 668 mmHg 62%
    01:00 +21°C° 0 mm 3 mps 668 mmHg 66%
    02:00 +21°C° 0 mm 3 mps 667 mmHg 69%
    03:00 +20°C° 0 mm 3 mps 668 mmHg 71%
    04:00 +20°C° 0 mm 2 mps 668 mmHg 73%
    05:00 +20°C° 0 mm 2 mps 668 mmHg 75%
    06:00 +21°C° 0 mm 3 mps 668 mmHg 68%
    07:00 +22°C° 0 mm 3 mps 669 mmHg 61%
    08:00 +23°C° 0 mm 4 mps 669 mmHg 54%
    09:00 +26°C° 0 mm 4 mps 669 mmHg 50%
    10:00 +27°C° 0 mm 4 mps 669 mmHg 46%
    11:00 +28°C° 0 mm 4 mps 669 mmHg 41%
    12:00 +29°C° 0 mm 4 mps 669 mmHg 39%
    13:00 +29°C° 0 mm 4 mps 668 mmHg 38%
    14:00 +30°C° 0 mm 4 mps 668 mmHg 36%
    15:00 +29°C° 0 mm 4 mps 668 mmHg 38%
    16:00 +28°C° 0 mm 4 mps 668 mmHg 40%
    17:00 +28°C° 0 mm 4 mps 668 mmHg 42%
    18:00 +27°C° 0 mm 4 mps 668 mmHg 46%
    19:00 +26°C° 0 mm 4 mps 668 mmHg 50%
    20:00 +24°C° 0 mm 3 mps 669 mmHg 54%
    21:00 +24°C° 0 mm 3 mps 669 mmHg 56%
    22:00 +22°C° 0 mm 3 mps 669 mmHg 58%
    23:00 +22°C° 0 mm 3 mps 669 mmHg 61%

    Day after tomorrow, 23 October, Tuesday

    Time Temperature Precipitation Wind Pressure Humidity
    00:00 +23°C° 0 mm 2 mps 668 mmHg 62%
    01:00 +21°C° 0 mm 2 mps 668 mmHg 64%
    02:00 +21°C° 0 mm 2 mps 668 mmHg 66%
    03:00 +21°C° 0 mm 2 mps 668 mmHg 68%
    04:00 +20°C° 0 mm 2 mps 668 mmHg 69%
    05:00 +20°C° 0 mm 2 mps 668 mmHg 71%
    06:00 +21°C° 0 mm 2 mps 669 mmHg 66%
    07:00 +22°C° 0 mm 3 mps 670 mmHg 60%
    08:00 +25°C° 0 mm 4 mps 670 mmHg 55%
    09:00 +26°C° 0 mm 4 mps 670 mmHg 49%
    10:00 +28°C° 0 mm 4 mps 670 mmHg 43%
    11:00 +29°C° 0 mm 4 mps 670 mmHg 37%
    12:00 +30°C° 0 mm 4 mps 670 mmHg 34%
    13:00 +32°C° 0 mm 4 mps 669 mmHg 32%
    14:00 +32°C° 0 mm 4 mps 668 mmHg 29%
    15:00 +32°C° 0 mm 4 mps 668 mmHg 30%
    16:00 +30°C° 0 mm 5 mps 667 mmHg 31%
    17:00 +29°C° 0 mm 5 mps 667 mmHg 32%
    18:00 +28°C° 0 mm 4 mps 668 mmHg 34%
    19:00 +26°C° 0 mm 4 mps 668 mmHg 36%
    20:00 +25°C° 0 mm 4 mps 668 mmHg 38%
    21:00 +24°C° 0 mm 3 mps 668 mmHg 39%
    22:00 +22°C° 0 mm 3 mps 669 mmHg 40%
    23:00 +23°C° 0 mm 2 mps 669 mmHg 41%

    24 October, Wednesday

    Time Temperature Precipitation Wind Pressure Humidity
    00:00 +21°C° 0 mm 2 mps 668 mmHg 43%
    01:00 +21°C° 0 mm 2 mps 668 mmHg 44%
    02:00 +20°C° 0 mm 2 mps 667 mmHg 45%
    03:00 +20°C° 0 mm 2 mps 668 mmHg 49%
    04:00 +19°C° 0 mm 2 mps 668 mmHg 52%
    05:00 +19°C° 0 mm 2 mps 668 mmHg 56%
    06:00 +20°C° 0 mm 3 mps 669 mmHg 54%
    07:00 +21°C° 0 mm 3 mps 669 mmHg 52%
    08:00 +22°C° 0 mm 3 mps 670 mmHg 51%
    09:00 +25°C° 0 mm 3 mps 670 mmHg 45%
    10:00 +27°C° 0 mm 3 mps 670 mmHg 39%
    11:00 +29°C° 0 mm 3 mps 670 mmHg 33%
    12:00 +30°C° 0 mm 3 mps 669 mmHg 31%
    13:00 +31°C° 0 mm 3 mps 668 mmHg 29%
    14:00 +33°C° 0 mm 4 mps 667 mmHg 27%
    15:00 +32°C° 0 mm 4 mps 667 mmHg 29%
    16:00 +30°C° 0 mm 4 mps 667 mmHg 30%
    17:00 +30°C° 0 mm 5 mps 666 mmHg 32%
    18:00 +28°C° 0 mm 4 mps 667 mmHg 37%
    19:00 +27°C° 0 mm 4 mps 667 mmHg 41%
    20:00 +25°C° 0 mm 4 mps 668 mmHg 46%
    21:00 +25°C° 0 mm 4 mps 668 mmHg 47%
    22:00 +24°C° 0 mm 3 mps 668 mmHg 48%
    23:00 +24°C° 0 mm 3 mps 668 mmHg 49%

    25 October, Thursday

    Time Temperature Precipitation Wind Pressure Humidity
    00:00 +22°C° 0 mm 3 mps 667 mmHg 52%
    01:00 +22°C° 0 mm 3 mps 666 mmHg 54%
    02:00 +22°C° 0 mm 3 mps 666 mmHg 57%
    03:00 +21°C° 0.1 mm 2 mps 666 mmHg 60%
    04:00 +21°C° 0.1 mm 2 mps 666 mmHg 63%
    05:00 +21°C° 0.1 mm 2 mps 667 mmHg 66%
    06:00 +22°C° 0.8 mm 1 mps 667 mmHg 67%
    07:00 +22°C° 0.8 mm 1 mps 668 mmHg 68%
    08:00 +22°C° 0.8 mm 1 mps 668 mmHg 69%
    09:00 +22°C° 1.7 mm 1 mps 668 mmHg 71%
    10:00 +22°C° 1.7 mm 1 mps 668 mmHg 72%
    11:00 +22°C° 1.7 mm 1 mps 667 mmHg 74%
    12:00 +21°C° 1.4 mm 1 mps 667 mmHg 75%
    13:00 +21°C° 1.4 mm 1 mps 666 mmHg 77%
    14:00 +21°C° 1.4 mm 1 mps 666 mmHg 79%
    15:00 +21°C° 1.6 mm 1 mps 666 mmHg 81%
    16:00 +21°C° 1.6 mm 1 mps 666 mmHg 82%
    17:00 +21°C° 1.6 mm 1 mps 666 mmHg 83%
    18:00 +21°C° 0.3 mm 1 mps 667 mmHg 83%
    19:00 +21°C° 0.3 mm 1 mps 667 mmHg 83%
    20:00 +21°C° 0.3 mm 1 mps 668 mmHg 83%
    21:00 +21°C° 0.5 mm 1 mps 668 mmHg 84%
    22:00 +20°C° 0.5 mm 1 mps 668 mmHg 84%
    23:00 +20°C° 0.5 mm 1 mps 667 mmHg 85%

    26 October, Friday

    Time Temperature Precipitation Wind Pressure Humidity
    00:00 +20°C° 2 mm 1 mps 667 mmHg 86%
    01:00 +20°C° 2 mm 1 mps 667 mmHg 88%
    02:00 +18°C° 2 mm 0 mps 666 mmHg 89%
    03:00 +20°C° 1 mm 1 mps 666 mmHg 88%
    04:00 +20°C° 1 mm 1 mps 667 mmHg 88%
    05:00 +20°C° 1 mm 1 mps 667 mmHg 88%
    06:00 +20°C° 0.7 mm 1 mps 667 mmHg 87%
    07:00 +20°C° 0.7 mm 1 mps 668 mmHg 86%
    08:00 +20°C° 0.7 mm 1 mps 668 mmHg 86%
    09:00 +20°C° 0.5 mm 1 mps 668 mmHg 85%
    10:00 +20°C° 0.5 mm 1 mps 667 mmHg 85%
    11:00 +20°C° 0.5 mm 1 mps 667 mmHg 84%
    12:00 +21°C° 0.2 mm 1 mps 667 mmHg 82%
    13:00 +22°C° 0.2 mm 1 mps 666 mmHg 79%
    14:00 +22°C° 0.2 mm 1 mps 666 mmHg 76%
    15:00 +22°C° 0.1 mm 1 mps 666 mmHg 76%
    16:00 +22°C° 0.1 mm 1 mps 666 mmHg 76%
    17:00 +22°C° 0.1 mm 1 mps 666 mmHg 76%
    18:00 +22°C° 0 mm 1 mps 667 mmHg 78%
    19:00 +21°C° 0 mm 1 mps 667 mmHg 81%
    20:00 +21°C° 0 mm 1 mps 668 mmHg 83%
    21:00 +21°C° 0 mm 1 mps 668 mmHg 85%
    22:00 +20°C° 0 mm 1 mps 667 mmHg 86%
    23:00 +20°C° 0 mm 1 mps 667 mmHg 87%
    Show more